Location: Pinhead Observatory
(34.4473°N, 118.1985°W)
Time: 20:35:58
(UTC-08:00)

Daily predictions for brighter satellites

Satellite Brightness Start Highest point End
(mag) Time Altitude Azimuth Time Altitude Azimuth Time Altitude Azimuth
Cosmos 1932 4.5 17:02:14 10° NNW 17:08:33 66° ENE 17:14:43 10° SE
Cosmos 1544 Rocket 4.1 17:05:24 10° NNE 17:09:24 35° E 17:13:22 10° SE
Meteor 2-4 Rocket 4.3 17:04:37 10° SSE 17:09:30 34° E 17:14:19 10° NNE
YAOGAN 1 3.6 17:07:07 10° SE 17:10:37 25° ENE 17:14:09 10° NNE
SJ-12 4.4 17:08:37 10° S 17:12:43 67° W 17:16:49 10° NNW
Delta 2 Rocket 4.0 17:10:21 10° W 17:16:03 80° N 17:21:14 10° E
ALOS 3.7 17:14:08 10° ESE 17:17:04 17° ENE 17:19:59 10° NNE
Cosmos 1607 4.3 17:11:54 10° NNW 17:18:24 79° WSW 17:24:46 10° SSE
Hubble Space Telescope 2.1 17:16:05 10° WSW 17:19:53 35° S 17:23:41 10° ESE
SJ-7 4.3 17:16:12 10° SSE 17:20:12 81° ENE 17:24:12 10° N
CSL-04 Debris 4.1 17:14:51 10° SSE 17:20:12 74° ENE 17:25:35 10° N
IRAS Rocket 4.2 17:15:02 10° SSE 17:20:31 83° ENE 17:26:01 10° NNW
Ariane Rocket 2.9 17:16:23 10° SSE 17:21:25 73° ENE 17:26:28 10° N
Cosmos 1428 Rocket 4.4 17:15:50 10° N 17:22:01 79° E 17:28:08 10° S
USA 116 3.3 17:19:19 10° NNE 17:22:23 48° E 17:25:23 10° S
Cosmos 389 Rocket 2.3 17:20:15 10° N 17:23:44 74° E 17:27:08 10° SSE
Cosmos 2369 4.0 17:18:54 10° S 17:24:20 50° ESE 17:29:50 10° NNE
Cosmos 2278 4.0 17:20:18 10° S 17:25:42 49° ESE 17:31:11 10° NNE
COSMO-SKYMED 1 3.1 17:24:49 10° NNE 17:28:51 37° E 17:32:53 10° SSE
Cosmos 1125 Rocket 3.7 17:26:50 10° S 17:32:00 55° ESE 17:37:10 10° NNE
Meteor 1-28 Rocket 3.4 17:28:36 10° N 17:32:21 74° WNW 17:36:07 10° SSW
Cosmos 2279 Rocket 4.5 17:27:20 10° SSW 17:33:31 65° W 17:39:45 10° N
ISS -2.5 17:31:49 10° NNW 17:34:30 23° NE 17:36:03 16° ENE
Meteor 1-19 Rocket 4.3 17:29:22 10° S 17:35:00 88° W 17:40:48 10° N
EO 1 Del DPAF 3.9 17:32:16 10° NNE 17:35:45 33° E 17:39:13 10° SSE
SJ 16-02 1.5 17:31:39 10° S 17:35:54 53° ESE 17:40:12 10° NNE
Cosmos 1743 2.8 17:35:18 10° N 17:39:10 81° W 17:43:03 10° S
CSL-04 Rocket 4.2 17:34:33 10° S 17:39:53 65° WSW 17:45:20 10° NNW
FENGYUN 3A 4.3 17:36:28 10° SE 17:41:09 32° ENE 17:45:50 10° N
Gbstr 26 Del rocket 4.5 17:34:55 10° SW 17:43:01 75° SE 17:49:22 15° NE
BREEZE-M DEB (TANK) 3.1 17:39:58 10° NW 17:43:05 55° NE 17:53:12 10° ESE
PSLV R/B 4.1 17:43:24 10° W 17:46:20 34° NNW 17:47:56 20° NE
METEOR-M 4.1 17:41:45 10° SSE 17:46:59 61° ENE 17:52:15 10° N
Cosmos 1697 Rocket 3.0 17:43:06 10° S 17:48:25 45° ESE 17:53:01 14° NE
DELTA 2 R/B (1) 4.0 17:50:14 10° WNW 17:55:38 50° N 17:58:57 23° ENE
USA 238 DEB 3.8 17:48:36 10° NNW 17:55:41 63° ENE 18:02:47 10° SE
USA 238 3.8 17:48:42 10° NNW 17:55:47 63° ENE 18:02:53 10° SE
Cosmos 372 Rocket 4.0 17:52:17 10° SSW 17:57:30 87° WNW 18:02:43 10° NNE
MOS 1 4.3 17:52:06 10° SSE 17:57:41 61° ENE 18:03:16 10° N
Landsat 4 4.0 17:55:17 10° N 17:59:05 68° WNW 18:02:51 10° SSW
Cosmos 2082 3.8 17:54:52 10° N 18:00:22 53° ENE 18:05:50 10° SE
Cosmos 1536 Rocket 4.0 17:57:39 10° SSW 18:01:58 62° W 18:06:17 10° N
Cosmos 1025 Rocket 3.3 17:59:09 10° SSE 18:03:12 42° E 18:05:20 24° NE
Cosmos 1241 Rocket 4.5 17:58:06 10° SSW 18:04:25 67° ESE 18:09:09 18° NE
Cosmos 1271 Rocket 4.4 18:04:18 10° NNW 18:07:47 35° W 18:11:17 10° SSW
ERS-2 2.0 18:04:25 10° SSE 18:08:02 66° ENE 18:11:41 10° N
Cosmos 2227 Rocket 2.1 18:08:00 10° NNW 18:13:41 90° ENE 18:19:20 10° SSE
MONITOR-E 4.1 18:11:17 10° S 18:14:18 83° WSW 18:17:21 10° NNW
Meteor 1-23 Rocket 4.3 18:09:54 10° S 18:15:41 85° W 18:21:26 10° N
GOES 2 Rocket 4.1 18:12:08 10° WSW 18:16:23 42° S 18:19:09 23° ESE
SKYMED 2 4.2 18:12:41 10° N 18:16:56 55° WNW 18:21:10 10° SSW
Atlas Centaur 2 2.6 18:14:38 10° W 18:19:26 41° SSW 18:21:33 23° SE
RESURS DK-1 4.0 18:19:22 10° SSE 18:21:11 20° SE 18:21:11 20° SE
NOSS 3-2 (A) 4.0 18:18:18 10° NNW 18:25:53 60° NE 18:34:02 10° SE
Cosmos 2084 3.2 18:23:04 10° SSW 18:27:18 72° ESE 18:27:47 63° ENE
Cosmos 724 4.1 18:21:34 10° NNW 18:27:21 72° ENE 18:33:09 10° SE
Cosmos 1980 Rocket 2.2 18:22:56 10° S 18:28:28 58° ESE 18:30:15 40° NE
NOSS 3-2 (C) 4.2 18:24:47 10° NNW 18:32:14 51° NE 18:36:33 27° ESE
CZ-4 R/B 4.2 18:31:28 10° SW 18:34:11 18° W 18:36:57 10° NW
OAO 1 Rocket 4.3 18:32:29 10° W 18:37:50 84° N 18:38:49 60° ENE
SPOT 3 Rocket 3.8 18:34:35 10° S 18:39:44 67° WSW 18:44:53 10° NNW
H-2A R/B 3.1 18:38:21 10° SW 18:39:52 26° S 18:39:52 26° S
Cosmos 2297 Rocket 2.6 18:35:01 10° NNW 18:40:36 62° WSW 18:46:10 10° S
ATLAS 3B R/B 3.0 18:36:53 10° NW 18:43:23 62° WSW 18:49:44 10° SSE
S3M 3.9 18:46:56 10° S 18:52:39 60° ESE 18:52:39 60° ESE
ALOS 3.5 18:49:43 10° S 18:54:07 41° W 18:58:32 10° NNW
NOSS 3-4 (A) 4.0 18:49:56 10° SW 18:55:59 55° NW 18:58:48 32° N
NOSS 3-4 (C) 4.0 18:50:01 10° SW 18:56:05 55° NW 18:58:51 32° N
Thor Agena Rocket 3.4 18:56:21 77° NNE 18:56:46 89° ESE 19:02:02 10° SSW
Delta 2 Rocket 4.1 18:53:28 10° W 18:58:47 59° SSW 18:58:55 59° SSW
Hubble Space Telescope 2.7 18:57:20 10° WSW 19:00:29 24° SSW 19:00:29 24° SSW
SL-16 R/B 4.1 19:01:55 10° S 19:03:07 16° SSE 19:03:07 16° SSE
Cosmos 2344 4.0 19:02:59 10° S 19:09:06 44° SE 19:09:06 44° SE
Cosmos 2360 4.4 19:04:50 10° SSW 19:10:29 66° WNW 19:11:08 61° NNW
ISS -0.7 19:08:05 10° WNW 19:08:47 14° WNW 19:08:47 14° WNW
Cosmos 2322 Rocket 4.2 19:08:20 10° S 19:09:19 15° S 19:09:19 15° S
SJ 16-02 4.3 19:13:22 10° W 19:14:49 11° WNW 19:16:17 10° NW
CENTAUR R/B 3.9 19:18:22 10° NNW 19:23:13 36° N 19:23:13 36° N
Cosmos 1553 Rocket 4.4 19:21:18 10° SSW 19:27:36 61° W 19:29:04 49° NNW
